Mountain Home, AR

10:41 PM CDT on October 20, 2019 (GMT -0500)
Baxter County Regional

Weather History for KBPK - August, 2019

Change the Weather History Date:

Tuesday, August 6, 2019

  Actual Average (WUND) Record (WUND)
Temperature  
Mean Temperature 82 °F -  
Max Temperature 93 °F - - (-1)
Min Temperature 71 °F - - (-1)
Cooling Degree Days 17    
Growing Degree Days 32 (Base 50)    
Moisture  
Dew Point 72 °F    
Average Humidity 79    
Maximum Humidity 100    
Minimum Humidity 46    
Precipitation  
Precipitation 0.00 in - - ()
Sea Level Pressure  
Sea Level Pressure 29.89 in    
Wind  
Wind Speed 1 mph (WSW)    
Max Wind Speed 6 mph    
Max Gust Speed -    
Visibility 10 miles    
Events      
Averages and records for this station are not official NWS values.
T = Trace of Precipitation, MM = Missing Value Source: NWS Daily Summary

Daily Weather History Graph

Daily Weather History Graph

Search for Another Location

Airport or City:

Astronomy

Aug. 06, 2019 Rise Set
Actual Time 6:20 AM CDT 8:10 PM CDT
Civil Twilight 5:52 AM CDT 8:38 PM CDT
Nautical Twilight 5:18 AM CDT 9:12 PM CDT
Astronomical Twilight 4:41 AM CDT 9:48 PM CDT
Moon 12:35 PM CDT (8/6) No Moon Set
Length of Visible Light 14h 46m
Length of Day
13h 50m
Waxing Crescent, 39% of the Moon is Illuminated
Aug 6
Waxing Crescent
Aug 7
First Quarter
Aug 15
Full
Aug 23
Last Quarter
Aug 30
New

Hourly Weather History & Observations

Time (CDT) Temp. Heat Index Dew Point Humidity Pressure Visibility Wind Dir Wind Speed Gust Speed Precip Events Conditions
12:53 AM 72.0 °F - 72.0 °F 100% 29.92 in 9.0 mi Calm Calm - N/A   Clear
1:53 AM 73.0 °F - 72.0 °F 96% 29.91 in 10.0 mi Calm Calm - N/A   Clear
2:53 AM 72.0 °F - 71.1 °F 97% 29.92 in 9.0 mi Calm Calm - N/A   Clear
3:53 AM 71.1 °F - 71.1 °F 100% 29.92 in 10.0 mi Calm Calm - N/A   Clear
4:53 AM 73.0 °F - 71.1 °F 93% 29.91 in 10.0 mi Calm Calm - N/A   Clear
5:53 AM 72.0 °F - 71.1 °F 97% 29.92 in 10.0 mi Calm Calm - N/A   Scattered Clouds
7:53 AM 73.0 °F - 72.0 °F 96% 29.94 in 9.0 mi Calm Calm - N/A   Clear
8:53 AM 77.0 °F - 73.0 °F 88% 29.94 in 10.0 mi Calm Calm - N/A   Clear
9:53 AM 79.0 °F - 73.0 °F 82% 29.94 in 10.0 mi Calm Calm - N/A   Clear
10:53 AM 84.9 °F 93.3 °F 75.0 °F 72% 29.94 in 10.0 mi Variable 4.6 mph - N/A   Clear
11:53 AM 87.1 °F 95.4 °F 73.9 °F 65% 29.92 in 10.0 mi Variable 5.8 mph - N/A   Clear
1:53 PM 91.9 °F 100.7 °F 73.0 °F 54% 29.89 in 10.0 mi Variable 4.6 mph - N/A   Clear
2:53 PM 93.9 °F 100.3 °F 70.0 °F 46% 29.86 in 10.0 mi Variable 4.6 mph - N/A   Clear
3:53 PM 93.0 °F 100.1 °F 71.1 °F 49% 29.85 in 10.0 mi Variable 3.5 mph - N/A   Partly Cloudy
4:53 PM 93.0 °F 100.1 °F 71.1 °F 49% 29.83 in 10.0 mi West 4.6 mph - N/A   Unknown
5:53 PM 87.1 °F 93.6 °F 72.0 °F 61% 29.82 in 10.0 mi Calm Calm - N/A   Partly Cloudy
6:53 PM 82.9 °F 89.4 °F 73.9 °F 74% 29.85 in 10.0 mi Calm Calm - N/A   Overcast
7:53 PM 81.0 °F 85.8 °F 73.0 °F 77% 29.84 in 10.0 mi Calm Calm - N/A   Clear
8:53 PM 78.1 °F - 73.0 °F 84% 29.83 in 10.0 mi Calm Calm - N/A   Clear
9:53 PM 78.1 °F - 71.1 °F 79% 29.85 in 10.0 mi Calm Calm - N/A   Clear
10:53 PM 75.9 °F - 72.0 °F 87% 29.87 in 10.0 mi SSW 3.5 mph - N/A   Clear
11:53 PM 77.0 °F - 73.0 °F 88% 29.88 in 10.0 mi WSW 3.5 mph - N/A   Clear